{"data":{"norad_id":66368,"epoch":"2026-09-20T20:55:46.956000Z","epoch_age_seconds":61266,"freshness":"FRESH","line1":"1 66368U 25254W   26263.87207125  .00017271  00000+0  52117-3 0  9994","line2":"2 66368  53.1582  41.9260 0001109  39.5603 320.5481 15.34396007 48917","mean_motion":15.34396007,"eccentricity":0.0001109,"inclination_deg":53.1582,"raan_deg":41.926,"arg_perigee_deg":39.5603,"mean_anomaly_deg":320.5481,"bstar":0.00052117,"rev_number":4891,"period_min":93.84800230388,"perigee_km":461.95645777152,"apogee_km":463.47375876914,"semimajor_km":6840.8521082703,"source":"CELESTRAK","updated_at":"2026-09-21T09:00:35.883289Z"}}